N828WW KPHX-KMKL

Flight info

Callsign N828WW
Flight time 2h 22m
Altitude 45000
Route BROAK1 MAXXO CNX
Aircraft C700/M-SBDGHM1RWXY/LB2

Departure

Time 2026-05-07 21:25
Airport Phoenix Sky Harbor International Airport (KPHX)

Arrival

Time 2026-05-07 23:47
Airport McKellar-Sipes Regional Airport (KMKL)
Time Latitude Longitude Altitude Speed Heading
2026-05-07 21:05 33.44227 -112.02155 1125 ft 0 kts 144°
2026-05-07 21:17 33.44230 -112.02157 1125 ft 3 kts 144°
2026-05-07 21:17 33.44237 -112.02163 1125 ft 4 kts 142°
2026-05-07 21:17 33.44218 -112.02141 1117 ft 3 kts 138°
2026-05-07 21:17 33.44206 -112.02120 1125 ft 4 kts 114°
2026-05-07 21:18 33.44204 -112.02113 1114 ft 4 kts 110°
2026-05-07 21:18 33.44207 -112.02127 1125 ft 1 kts 182°
2026-05-07 21:18 33.44226 -112.02126 1125 ft 4 kts 180°
2026-05-07 21:18 33.44240 -112.02123 1125 ft 4 kts 142°
2026-05-07 21:19 33.44244 -112.02126 1126 ft 0 kts 176°
2026-05-07 21:20 33.44239 -112.02125 1125 ft 3 kts 176°
2026-05-07 21:21 33.44201 -112.02110 1114 ft 7 kts 118°
2026-05-07 21:21 33.44197 -112.02008 1125 ft 17 kts 89°
2026-05-07 21:21 33.44199 -112.01818 1126 ft 28 kts 91°
2026-05-07 21:21 33.44199 -112.01540 1127 ft 38 kts 88°
2026-05-07 21:22 33.44196 -112.01210 1127 ft 38 kts 90°
2026-05-07 21:22 33.44195 -112.00912 1127 ft 35 kts 91°
2026-05-07 21:22 33.44195 -112.00624 1126 ft 34 kts 90°
2026-05-07 21:22 33.44195 -112.00339 1127 ft 34 kts 89°
2026-05-07 21:23 33.44194 -112.00055 1128 ft 34 kts 89°
2026-05-07 21:23 33.44195 -111.99762 1129 ft 39 kts 90°
2026-05-07 21:23 33.44194 -111.99531 1130 ft 45 kts 90°
2026-05-07 21:23 33.44143 -111.99224 1132 ft 19 kts 180°
2026-05-07 21:24 33.44081 -111.99272 1134 ft 19 kts 268°
2026-05-07 21:24 33.44076 -112.00000 1134 ft 114 kts 269°
2026-05-07 21:24 33.44069 -112.00753 1133 ft 150 kts 275°
2026-05-07 21:24 33.44099 -112.02063 1458 ft 167 kts 272°
2026-05-07 21:25 33.44127 -112.03499 1936 ft 183 kts 268°
2026-05-07 21:25 33.43984 -112.05035 2755 ft 175 kts 262°
2026-05-07 21:25 33.43851 -112.06490 3523 ft 180 kts 265°
2026-05-07 21:25 33.43790 -112.08036 4045 ft 198 kts 268°
2026-05-07 21:26 33.43744 -112.09780 4553 ft 219 kts 268°
2026-05-07 21:26 33.43685 -112.11687 5060 ft 239 kts 268°
2026-05-07 21:26 33.43615 -112.13761 5567 ft 258 kts 268°
2026-05-07 21:26 33.43542 -112.15980 6078 ft 276 kts 268°
2026-05-07 21:27 33.43464 -112.18357 6569 ft 294 kts 268°
2026-05-07 21:27 33.43382 -112.20848 7040 ft 312 kts 268°
2026-05-07 21:27 33.43296 -112.23363 7523 ft 289 kts 269°
2026-05-07 21:27 33.43215 -112.25744 7612 ft 286 kts 269°
2026-05-07 21:28 33.43136 -112.28134 7617 ft 288 kts 270°
2026-05-07 21:28 33.43054 -112.30537 7639 ft 289 kts 269°
2026-05-07 21:28 33.42973 -112.32928 7690 ft 288 kts 269°
2026-05-07 21:28 33.42891 -112.35332 7734 ft 288 kts 270°
2026-05-07 21:29 33.42809 -112.37700 7786 ft 288 kts 269°
2026-05-07 21:29 33.42725 -112.40095 7825 ft 288 kts 269°
2026-05-07 21:29 33.42641 -112.42492 7861 ft 289 kts 270°
2026-05-07 21:29 33.42557 -112.44900 7922 ft 289 kts 269°
2026-05-07 21:30 33.42471 -112.47308 7933 ft 290 kts 269°
2026-05-07 21:30 33.41925 -112.49633 7842 ft 296 kts 239°
2026-05-07 21:30 33.40459 -112.51321 7945 ft 293 kts 212°
2026-05-07 21:30 33.38555 -112.52119 8081 ft 292 kts 188°
2026-05-07 21:31 33.36508 -112.51832 8700 ft 294 kts 159°
2026-05-07 21:31 33.34723 -112.50754 9690 ft 293 kts 143°
2026-05-07 21:31 33.33165 -112.49128 10199 ft 304 kts 129°
2026-05-07 21:31 33.31910 -112.46996 10329 ft 326 kts 116°
2026-05-07 21:32 33.31037 -112.44403 10381 ft 347 kts 103°
2026-05-07 21:32 33.30693 -112.41550 11042 ft 345 kts 89°
2026-05-07 21:32 33.30893 -112.38710 11747 ft 344 kts 77°
2026-05-07 21:32 33.31617 -112.35982 12391 ft 345 kts 65°
2026-05-07 21:33 33.32727 -112.33437 13068 ft 346 kts 60°
2026-05-07 21:33 33.33871 -112.30892 13719 ft 349 kts 62°
2026-05-07 21:33 33.34863 -112.28273 14295 ft 352 kts 67°
2026-05-07 21:33 33.35646 -112.25487 14858 ft 355 kts 73°
2026-05-07 21:34 33.36063 -112.22561 15399 ft 359 kts 82°
2026-05-07 21:34 33.36247 -112.19561 16005 ft 361 kts 84°
2026-05-07 21:34 33.36422 -112.16549 16571 ft 364 kts 82°
2026-05-07 21:34 33.36754 -112.13540 17185 ft 366 kts 79°
2026-05-07 21:35 33.37136 -112.10513 17779 ft 370 kts 80°
2026-05-07 21:35 33.37445 -112.07446 18381 ft 373 kts 82°
2026-05-07 21:35 33.37725 -112.04351 18948 ft 375 kts 82°
2026-05-07 21:35 33.38036 -112.01284 19527 ft 377 kts 81°
2026-05-07 21:36 33.38373 -111.98162 20115 ft 380 kts 81°
2026-05-07 21:36 33.38695 -111.95010 20711 ft 383 kts 81°
2026-05-07 21:36 33.39008 -111.91828 21305 ft 385 kts 81°
2026-05-07 21:36 33.39328 -111.88630 21888 ft 388 kts 81°
2026-05-07 21:37 33.39657 -111.85405 22480 ft 391 kts 81°
2026-05-07 21:37 33.39984 -111.82160 23063 ft 394 kts 81°
2026-05-07 21:37 33.40310 -111.78890 23599 ft 398 kts 82°
2026-05-07 21:37 33.40640 -111.75581 24024 ft 402 kts 81°
2026-05-07 21:38 33.40971 -111.72247 24510 ft 404 kts 81°
2026-05-07 21:38 33.41304 -111.68901 24977 ft 407 kts 81°
2026-05-07 21:38 33.41634 -111.65572 25443 ft 409 kts 81°
2026-05-07 21:38 33.41969 -111.62181 25918 ft 411 kts 81°
2026-05-07 21:39 33.42303 -111.58777 26379 ft 414 kts 81°
2026-05-07 21:39 33.42721 -111.55362 26756 ft 415 kts 76°
2026-05-07 21:39 33.43571 -111.52064 27225 ft 415 kts 68°
2026-05-07 21:39 33.44613 -111.48833 27703 ft 417 kts 67°
2026-05-07 21:40 33.45644 -111.45574 28178 ft 419 kts 68°
2026-05-07 21:40 33.46669 -111.42297 28651 ft 422 kts 68°
2026-05-07 21:40 33.47707 -111.39001 29116 ft 424 kts 67°
2026-05-07 21:40 33.48754 -111.35697 29585 ft 426 kts 67°
2026-05-07 21:41 33.49808 -111.32359 29976 ft 429 kts 67°
2026-05-07 21:41 33.50864 -111.28995 30359 ft 432 kts 67°
2026-05-07 21:41 33.51923 -111.25618 30751 ft 435 kts 67°
2026-05-07 21:41 33.52986 -111.22225 31274 ft 433 kts 68°
2026-05-07 21:42 33.53955 -111.18815 31824 ft 431 kts 69°
2026-05-07 21:42 33.54904 -111.15411 32364 ft 429 kts 69°
2026-05-07 21:42 33.55858 -111.12021 32893 ft 429 kts 69°
2026-05-07 21:42 33.56801 -111.08675 33412 ft 428 kts 69°
2026-05-07 21:43 33.57746 -111.05298 33955 ft 427 kts 69°
2026-05-07 21:43 33.58690 -111.01919 34353 ft 428 kts 69°
2026-05-07 21:43 33.59639 -110.98524 34684 ft 430 kts 69°
2026-05-07 21:43 33.60594 -110.95105 35036 ft 432 kts 70°
2026-05-07 21:44 33.61552 -110.91667 35380 ft 435 kts 70°
2026-05-07 21:44 33.62511 -110.88217 35733 ft 437 kts 70°
2026-05-07 21:44 33.63476 -110.84751 36091 ft 439 kts 70°
2026-05-07 21:44 33.64446 -110.81260 36447 ft 441 kts 70°
2026-05-07 21:45 33.65418 -110.77754 36776 ft 444 kts 71°
2026-05-07 21:45 33.66385 -110.74262 37129 ft 447 kts 71°
2026-05-07 21:45 33.67364 -110.70721 37500 ft 449 kts 71°
2026-05-07 21:45 33.68350 -110.67154 37870 ft 451 kts 71°
2026-05-07 21:46 33.69339 -110.63573 38264 ft 452 kts 72°
2026-05-07 21:46 33.70328 -110.59982 38663 ft 453 kts 72°
2026-05-07 21:46 33.71320 -110.56376 38986 ft 455 kts 72°
2026-05-07 21:46 33.72314 -110.52764 39309 ft 456 kts 72°
2026-05-07 21:47 33.73310 -110.49138 39615 ft 458 kts 72°
2026-05-07 21:47 33.74307 -110.45499 39906 ft 460 kts 72°
2026-05-07 21:47 33.75313 -110.41822 40130 ft 464 kts 72°
2026-05-07 21:47 33.76310 -110.38176 40448 ft 465 kts 72°
2026-05-07 21:48 33.77322 -110.34475 40790 ft 466 kts 72°
2026-05-07 21:48 33.78334 -110.30772 41171 ft 466 kts 72°
2026-05-07 21:48 33.79350 -110.27047 41431 ft 469 kts 72°
2026-05-07 21:48 33.80363 -110.23325 41783 ft 469 kts 72°
2026-05-07 21:49 33.81378 -110.19594 42152 ft 469 kts 72°
2026-05-07 21:49 33.82393 -110.15857 42442 ft 470 kts 72°
2026-05-07 21:49 33.83406 -110.12124 42778 ft 470 kts 72°
2026-05-07 21:49 33.84426 -110.08356 42954 ft 474 kts 72°
2026-05-07 21:50 33.85435 -110.04625 43290 ft 474 kts 72°
2026-05-07 21:50 33.86457 -110.00844 43630 ft 474 kts 72°
2026-05-07 21:50 33.87475 -109.97071 43910 ft 475 kts 72°
2026-05-07 21:50 33.88495 -109.93286 44247 ft 475 kts 72°
2026-05-07 21:51 33.89512 -109.89506 44551 ft 475 kts 72°
2026-05-07 21:51 33.90531 -109.85714 44805 ft 474 kts 72°
2026-05-07 21:51 33.91531 -109.81986 44965 ft 467 kts 72°
2026-05-07 21:51 33.92536 -109.78234 44964 ft 473 kts 73°
2026-05-07 21:52 33.94579 -109.70590 44972 ft 486 kts 73°
2026-05-07 21:52 33.96670 -109.62751 45023 ft 498 kts 73°
2026-05-07 21:53 33.98810 -109.54700 45084 ft 509 kts 73°
2026-05-07 21:53 34.00974 -109.46541 45136 ft 518 kts 73°
2026-05-07 21:54 34.03179 -109.38194 45183 ft 525 kts 73°
2026-05-07 21:54 34.05388 -109.29810 45197 ft 524 kts 73°
2026-05-07 21:55 34.07591 -109.21427 45177 ft 524 kts 73°
2026-05-07 21:55 34.09788 -109.13038 45128 ft 525 kts 73°
2026-05-07 21:56 34.11978 -109.04651 45077 ft 528 kts 73°
2026-05-07 21:56 34.14177 -108.96203 45012 ft 527 kts 73°
2026-05-07 21:57 34.16371 -108.87749 44947 ft 527 kts 73°
2026-05-07 21:57 34.18559 -108.79290 44949 ft 527 kts 73°
2026-05-07 21:58 34.20747 -108.70804 44942 ft 530 kts 74°
2026-05-07 21:58 34.22936 -108.62290 44943 ft 530 kts 74°
2026-05-07 21:59 34.25118 -108.53770 44939 ft 530 kts 74°
2026-05-07 21:59 34.27282 -108.45297 44941 ft 530 kts 74°
2026-05-07 22:00 34.29458 -108.36748 44935 ft 534 kts 74°
2026-05-07 22:00 34.31636 -108.28166 44939 ft 533 kts 74°
2026-05-07 22:01 34.33807 -108.19581 44939 ft 533 kts 74°
2026-05-07 22:01 34.35970 -108.10999 44933 ft 533 kts 74°
2026-05-07 22:02 34.38039 -108.02448 44917 ft 532 kts 79°
2026-05-07 22:02 34.38682 -107.93573 44936 ft 528 kts 93°
2026-05-07 22:03 34.38530 -107.84692 44932 ft 529 kts 91°
2026-05-07 22:03 34.38789 -107.75778 44933 ft 529 kts 91°
2026-05-07 22:04 34.38780 -107.66862 44932 ft 530 kts 92°
2026-05-07 22:04 34.38923 -107.57983 44932 ft 531 kts 91°
2026-05-07 22:05 34.38973 -107.49049 44930 ft 530 kts 92°
2026-05-07 22:05 34.39058 -107.40119 44927 ft 531 kts 91°
2026-05-07 22:06 34.39121 -107.31151 44934 ft 533 kts 92°
2026-05-07 22:06 34.39179 -107.22173 44935 ft 533 kts 92°
2026-05-07 22:07 34.39235 -107.13197 44932 ft 533 kts 92°
2026-05-07 22:07 34.39279 -107.04228 44931 ft 533 kts 92°
2026-05-07 22:08 34.39321 -106.95270 44933 ft 535 kts 92°
2026-05-07 22:08 34.39353 -106.86259 44936 ft 535 kts 92°
2026-05-07 22:09 34.39381 -106.77242 44935 ft 535 kts 92°
2026-05-07 22:09 34.39371 -106.68226 44940 ft 535 kts 95°
2026-05-07 22:10 34.39154 -106.59193 44968 ft 537 kts 94°
2026-05-07 22:10 34.38952 -106.50153 44967 ft 536 kts 95°
2026-05-07 22:11 34.38725 -106.41117 44986 ft 537 kts 95°
2026-05-07 22:11 34.38543 -106.33602 44990 ft 540 kts 95°
2026-05-07 22:12 34.38306 -106.24494 44985 ft 541 kts 95°
2026-05-07 22:12 34.38068 -106.15380 44990 ft 541 kts 95°
2026-05-07 22:13 34.37821 -106.06337 45004 ft 541 kts 96°
2026-05-07 22:13 34.37568 -105.97198 44999 ft 543 kts 96°
2026-05-07 22:14 34.37305 -105.88045 45007 ft 543 kts 96°
2026-05-07 22:14 34.37038 -105.78889 45007 ft 543 kts 96°
2026-05-07 22:15 34.36777 -105.69750 44992 ft 545 kts 94°
2026-05-07 22:15 34.37644 -105.60650 44977 ft 553 kts 81°
2026-05-07 22:16 34.39117 -105.51485 44989 ft 553 kts 83°
2026-05-07 22:16 34.40305 -105.42296 44982 ft 553 kts 83°
2026-05-07 22:17 34.41693 -105.33137 44972 ft 553 kts 83°
2026-05-07 22:17 34.42930 -105.23924 44960 ft 556 kts 83°
2026-05-07 22:18 34.44903 -105.10089 44943 ft 555 kts 83°
2026-05-07 22:19 34.46166 -105.00851 44935 ft 555 kts 83°
2026-05-07 22:19 34.47452 -104.91673 44926 ft 555 kts 83°
2026-05-07 22:20 34.48716 -104.82380 44932 ft 558 kts 83°
2026-05-07 22:20 34.49995 -104.73092 44933 ft 558 kts 83°
2026-05-07 22:21 34.51243 -104.63855 44930 ft 558 kts 83°
2026-05-07 22:21 34.52500 -104.54577 44925 ft 557 kts 83°
2026-05-07 22:22 34.53744 -104.45287 44920 ft 558 kts 83°
2026-05-07 22:22 34.54987 -104.35994 44924 ft 558 kts 83°
2026-05-07 22:23 34.56217 -104.26708 44916 ft 557 kts 84°
2026-05-07 22:23 34.57436 -104.17466 44907 ft 560 kts 84°
2026-05-07 22:24 34.58661 -104.08122 44906 ft 560 kts 84°
2026-05-07 22:24 34.59879 -103.98770 44903 ft 560 kts 84°
2026-05-07 22:25 34.61089 -103.89423 44909 ft 560 kts 84°
2026-05-07 22:25 34.62291 -103.80071 44910 ft 563 kts 84°
2026-05-07 22:26 34.63488 -103.70718 44914 ft 563 kts 84°
2026-05-07 22:26 34.64682 -103.61314 44927 ft 563 kts 84°
2026-05-07 22:27 34.65869 -103.51919 44925 ft 563 kts 84°
2026-05-07 22:27 34.67049 -103.42501 44946 ft 565 kts 84°
2026-05-07 22:28 34.68227 -103.33062 44981 ft 565 kts 84°
2026-05-07 22:28 34.69397 -103.23613 44983 ft 565 kts 84°
2026-05-07 22:29 34.70560 -103.14156 45004 ft 565 kts 84°
2026-05-07 22:29 34.71711 -103.04737 45020 ft 567 kts 84°
2026-05-07 22:30 34.72864 -102.95243 45020 ft 567 kts 84°
2026-05-07 22:30 34.74009 -102.85751 45013 ft 567 kts 84°
2026-05-07 22:31 34.75147 -102.76253 45001 ft 568 kts 84°
2026-05-07 22:31 34.76282 -102.66708 45012 ft 570 kts 84°
2026-05-07 22:32 34.77412 -102.57154 45018 ft 569 kts 84°
2026-05-07 22:32 34.78524 -102.47669 45028 ft 569 kts 85°
2026-05-07 22:33 34.79638 -102.38112 45039 ft 571 kts 85°
2026-05-07 22:33 34.80749 -102.28509 45047 ft 572 kts 85°
2026-05-07 22:34 34.81853 -102.18908 45041 ft 572 kts 85°
2026-05-07 22:34 34.82943 -102.09356 44991 ft 572 kts 85°
2026-05-07 22:35 34.84032 -101.99741 44985 ft 575 kts 85°
2026-05-07 22:35 34.85117 -101.90096 44986 ft 575 kts 85°
2026-05-07 22:36 34.86194 -101.80448 44978 ft 574 kts 85°
2026-05-07 22:36 34.87256 -101.70869 44973 ft 574 kts 85°
2026-05-07 22:37 34.88318 -101.61209 44973 ft 577 kts 85°
2026-05-07 22:37 34.89377 -101.51527 44973 ft 577 kts 85°
2026-05-07 22:38 34.90426 -101.41839 44976 ft 576 kts 85°
2026-05-07 22:38 34.91471 -101.32130 44980 ft 576 kts 85°
2026-05-07 22:39 34.92507 -101.22406 44988 ft 581 kts 85°
2026-05-07 22:39 34.93543 -101.12641 44984 ft 581 kts 85°
2026-05-07 22:40 34.94560 -101.02950 44981 ft 580 kts 85°
2026-05-07 22:40 34.95579 -100.93188 44981 ft 580 kts 85°
2026-05-07 22:41 34.96588 -100.83433 44987 ft 580 kts 85°
2026-05-07 22:41 34.97591 -100.73654 44984 ft 580 kts 85°
2026-05-07 22:42 34.98585 -100.63884 44984 ft 580 kts 85°
2026-05-07 22:42 34.99571 -100.54123 44981 ft 582 kts 85°
2026-05-07 22:43 35.00555 -100.44300 44987 ft 583 kts 85°
2026-05-07 22:43 35.01530 -100.34481 44990 ft 583 kts 85°
2026-05-07 22:44 35.02491 -100.24721 44989 ft 583 kts 85°
2026-05-07 22:44 35.03450 -100.14893 44991 ft 586 kts 86°
2026-05-07 22:45 35.04408 -100.05013 44994 ft 585 kts 86°
2026-05-07 22:45 35.05355 -99.95135 44991 ft 585 kts 86°
2026-05-07 22:46 35.06294 -99.85271 44996 ft 585 kts 86°
2026-05-07 22:46 35.07221 -99.75434 44994 ft 589 kts 86°
2026-05-07 22:47 35.08151 -99.65503 44989 ft 588 kts 86°
2026-05-07 22:47 35.09069 -99.55582 44994 ft 588 kts 86°
2026-05-07 22:48 35.09982 -99.45649 44981 ft 588 kts 86°
2026-05-07 22:48 35.10888 -99.35677 44991 ft 592 kts 86°
2026-05-07 22:49 35.11785 -99.25746 45000 ft 591 kts 86°
2026-05-07 22:49 35.12676 -99.15757 45006 ft 591 kts 86°
2026-05-07 22:50 35.13562 -99.05753 45020 ft 593 kts 86°
2026-05-07 22:50 35.14442 -98.95700 45019 ft 594 kts 86°
2026-05-07 22:51 35.15314 -98.85661 45015 ft 593 kts 86°
2026-05-07 22:51 35.16170 -98.75684 45007 ft 594 kts 86°
2026-05-07 22:52 35.17028 -98.65613 45008 ft 597 kts 86°
2026-05-07 22:52 35.17878 -98.55525 45003 ft 596 kts 86°
2026-05-07 22:53 35.18718 -98.45446 45003 ft 596 kts 86°
2026-05-07 22:53 35.19551 -98.35360 45002 ft 596 kts 86°
2026-05-07 22:54 35.20378 -98.25228 45011 ft 600 kts 86°
2026-05-07 22:54 35.21196 -98.15125 45001 ft 599 kts 86°
2026-05-07 22:55 35.22008 -98.04977 45007 ft 599 kts 86°
2026-05-07 22:55 35.22812 -97.94817 45010 ft 600 kts 86°
2026-05-07 22:56 35.23609 -97.84646 45002 ft 600 kts 86°
2026-05-07 22:56 35.24391 -97.74546 45012 ft 600 kts 86°
2026-05-07 22:57 35.25171 -97.64369 45023 ft 600 kts 86°
2026-05-07 22:57 35.25943 -97.54176 45014 ft 603 kts 86°
2026-05-07 22:58 35.26710 -97.43941 45008 ft 602 kts 86°
2026-05-07 22:58 35.27462 -97.33787 45006 ft 602 kts 86°
2026-05-07 22:59 35.28210 -97.23573 45009 ft 602 kts 86°
2026-05-07 22:59 35.28948 -97.13365 45026 ft 602 kts 86°
2026-05-07 23:00 35.29556 -97.04875 45023 ft 602 kts 87°
2026-05-07 23:00 35.30279 -96.94662 45036 ft 600 kts 87°
2026-05-07 23:01 35.30980 -96.84651 45049 ft 600 kts 87°
2026-05-07 23:01 35.31683 -96.74451 45034 ft 601 kts 86°
2026-05-07 23:02 35.32381 -96.64249 45032 ft 601 kts 87°
2026-05-07 23:02 35.33066 -96.54049 45034 ft 601 kts 87°
2026-05-07 23:03 35.33747 -96.43842 45036 ft 602 kts 87°
2026-05-07 23:03 35.34414 -96.33669 45039 ft 602 kts 87°
2026-05-07 23:04 35.35078 -96.23444 45043 ft 602 kts 87°
2026-05-07 23:04 35.35734 -96.13191 45044 ft 602 kts 87°
2026-05-07 23:05 35.36381 -96.02935 45043 ft 605 kts 87°
2026-05-07 23:05 35.37021 -95.92672 45045 ft 604 kts 87°
2026-05-07 23:06 35.37652 -95.82392 45046 ft 604 kts 87°
2026-05-07 23:06 35.38269 -95.72209 45048 ft 604 kts 87°
2026-05-07 23:07 35.38884 -95.61897 45053 ft 606 kts 87°
2026-05-07 23:07 35.39492 -95.51595 45055 ft 606 kts 87°
2026-05-07 23:08 35.40088 -95.41304 45057 ft 606 kts 87°
2026-05-07 23:08 35.40675 -95.31032 45047 ft 606 kts 87°
2026-05-07 23:09 35.41255 -95.20725 45043 ft 606 kts 87°
2026-05-07 23:09 35.41827 -95.10416 45040 ft 606 kts 87°
2026-05-07 23:10 35.42389 -95.00102 45040 ft 606 kts 87°
2026-05-07 23:10 35.42944 -94.89787 45042 ft 607 kts 87°
2026-05-07 23:11 35.43490 -94.79457 45045 ft 607 kts 87°
2026-05-07 23:11 35.44023 -94.69191 45043 ft 606 kts 88°
2026-05-07 23:12 35.44552 -94.58858 45049 ft 607 kts 88°
2026-05-07 23:12 35.45072 -94.48502 45052 ft 607 kts 87°
2026-05-07 23:13 35.45581 -94.38217 45053 ft 608 kts 88°
2026-05-07 23:13 35.46084 -94.27866 45053 ft 608 kts 88°
2026-05-07 23:14 35.46578 -94.17514 45040 ft 608 kts 88°
2026-05-07 23:14 35.47063 -94.07145 45038 ft 608 kts 88°
2026-05-07 23:15 35.47541 -93.96773 45031 ft 608 kts 88°
2026-05-07 23:15 35.48006 -93.86465 45027 ft 609 kts 88°
2026-05-07 23:16 35.48466 -93.76078 45035 ft 608 kts 88°
2026-05-07 23:16 35.48916 -93.65700 45035 ft 608 kts 88°
2026-05-07 23:17 35.49357 -93.55345 45037 ft 608 kts 88°
2026-05-07 23:17 35.49786 -93.45050 45032 ft 608 kts 88°
2026-05-07 23:18 35.50209 -93.34695 45034 ft 608 kts 88°
2026-05-07 23:18 35.50623 -93.24322 45034 ft 608 kts 88°
2026-05-07 23:19 35.51030 -93.13949 45038 ft 608 kts 88°
2026-05-07 23:19 35.51426 -93.03565 45027 ft 608 kts 88°
2026-05-07 23:20 35.51816 -92.93182 45027 ft 609 kts 88°
2026-05-07 23:20 35.52192 -92.82854 45028 ft 608 kts 88°
2026-05-07 23:21 35.52563 -92.72477 45037 ft 609 kts 88°
2026-05-07 23:21 35.52925 -92.62088 45046 ft 610 kts 88°
2026-05-07 23:22 35.53279 -92.51678 45051 ft 610 kts 88°
2026-05-07 23:22 35.53622 -92.41278 45050 ft 610 kts 89°
2026-05-07 23:23 35.53958 -92.30870 45048 ft 610 kts 89°
2026-05-07 23:23 35.54284 -92.20492 45049 ft 611 kts 89°
2026-05-07 23:24 35.54603 -92.10050 45050 ft 611 kts 89°
2026-05-07 23:24 35.54912 -91.99611 45045 ft 611 kts 89°
2026-05-07 23:25 35.55211 -91.89184 45040 ft 611 kts 89°
2026-05-07 23:25 35.54977 -91.78745 45050 ft 609 kts 96°
2026-05-07 23:26 35.54590 -91.68431 44744 ft 603 kts 92°
2026-05-07 23:26 35.54565 -91.63289 43846 ft 599 kts 92°
2026-05-07 23:26 35.54446 -91.58187 43048 ft 592 kts 95°
2026-05-07 23:26 35.54226 -91.53159 42274 ft 587 kts 95°
2026-05-07 23:27 35.53964 -91.43207 40757 ft 579 kts 93°
2026-05-07 23:27 35.53863 -91.38256 40009 ft 580 kts 94°
2026-05-07 23:27 35.53689 -91.33295 39267 ft 583 kts 95°
2026-05-07 23:28 35.53506 -91.28370 38468 ft 588 kts 95°
2026-05-07 23:28 35.53372 -91.23333 37674 ft 590 kts 94°
2026-05-07 23:28 35.53251 -91.18298 36904 ft 591 kts 94°
2026-05-07 23:28 35.53090 -91.13240 36115 ft 592 kts 95°
2026-05-07 23:29 35.52907 -91.08175 35344 ft 594 kts 95°
2026-05-07 23:29 35.52746 -91.03092 34555 ft 595 kts 95°
2026-05-07 23:29 35.52601 -90.98001 33726 ft 597 kts 95°
2026-05-07 23:29 35.52442 -90.92923 32935 ft 595 kts 95°
2026-05-07 23:30 35.52265 -90.87909 32150 ft 594 kts 95°
2026-05-07 23:30 35.52090 -90.82852 31374 ft 593 kts 94°
2026-05-07 23:30 35.51928 -90.77796 30592 ft 594 kts 94°
2026-05-07 23:30 35.51762 -90.72734 29750 ft 590 kts 94°
2026-05-07 23:31 35.51587 -90.67746 28971 ft 578 kts 94°
2026-05-07 23:31 35.51412 -90.62867 28217 ft 565 kts 94°
2026-05-07 23:31 35.51245 -90.58095 27472 ft 554 kts 94°
2026-05-07 23:31 35.51081 -90.53409 26747 ft 543 kts 93°
2026-05-07 23:32 35.50914 -90.48822 26038 ft 533 kts 93°
2026-05-07 23:32 35.50750 -90.44373 25349 ft 523 kts 93°
2026-05-07 23:32 35.50588 -90.39952 24666 ft 513 kts 93°
2026-05-07 23:32 35.50428 -90.35613 23997 ft 504 kts 92°
2026-05-07 23:33 35.50267 -90.31345 23283 ft 495 kts 92°
2026-05-07 23:33 35.50108 -90.27164 22609 ft 486 kts 92°
2026-05-07 23:33 35.49951 -90.23037 21998 ft 483 kts 92°
2026-05-07 23:33 35.49795 -90.18987 21372 ft 479 kts 92°
2026-05-07 23:34 35.49636 -90.14919 20747 ft 474 kts 92°
2026-05-07 23:34 35.49478 -90.10900 20125 ft 468 kts 92°
2026-05-07 23:34 35.49322 -90.06934 19511 ft 462 kts 92°
2026-05-07 23:34 35.49165 -90.03013 18905 ft 457 kts 92°
2026-05-07 23:35 35.49010 -89.99147 18293 ft 451 kts 92°
2026-05-07 23:35 35.48854 -89.95318 17662 ft 445 kts 92°
2026-05-07 23:35 35.48700 -89.91545 17075 ft 441 kts 92°
2026-05-07 23:35 35.48548 -89.87852 16505 ft 437 kts 92°
2026-05-07 23:36 35.48394 -89.84148 15932 ft 432 kts 92°
2026-05-07 23:36 35.48241 -89.80478 15364 ft 428 kts 92°
2026-05-07 23:36 35.48089 -89.76850 14802 ft 424 kts 92°
2026-05-07 23:36 35.47936 -89.73245 14247 ft 419 kts 92°
2026-05-07 23:37 35.47784 -89.69689 13676 ft 415 kts 92°
2026-05-07 23:37 35.47633 -89.66178 13113 ft 408 kts 92°
2026-05-07 23:37 35.47485 -89.62765 12588 ft 403 kts 92°
2026-05-07 23:37 35.47337 -89.59344 12056 ft 399 kts 92°
2026-05-07 23:38 35.47188 -89.55974 11543 ft 393 kts 92°
2026-05-07 23:38 35.47043 -89.52696 11029 ft 374 kts 92°
2026-05-07 23:38 35.46906 -89.49582 10549 ft 357 kts 92°
2026-05-07 23:38 35.46773 -89.46600 10106 ft 343 kts 91°
2026-05-07 23:39 35.46645 -89.43741 9657 ft 329 kts 91°
2026-05-07 23:39 35.46520 -89.40991 9240 ft 317 kts 91°
2026-05-07 23:39 35.46400 -89.38324 8840 ft 309 kts 91°
2026-05-07 23:39 35.46281 -89.35699 8393 ft 305 kts 91°
2026-05-07 23:40 35.46162 -89.33129 7996 ft 299 kts 91°
2026-05-07 23:40 35.46048 -89.30628 7609 ft 295 kts 91°
2026-05-07 23:40 35.45931 -89.28133 7229 ft 291 kts 91°
2026-05-07 23:40 35.45668 -89.25684 6835 ft 288 kts 99°
2026-05-07 23:41 35.45237 -89.23303 6454 ft 283 kts 101°
2026-05-07 23:41 35.44862 -89.20980 6070 ft 278 kts 98°
2026-05-07 23:41 35.44552 -89.18647 5671 ft 275 kts 97°
2026-05-07 23:41 35.44236 -89.16337 5271 ft 274 kts 98°
2026-05-07 23:42 35.43897 -89.14044 4882 ft 272 kts 99°
2026-05-07 23:42 35.43562 -89.11766 4488 ft 271 kts 99°
2026-05-07 23:42 35.43234 -89.09493 4108 ft 270 kts 98°
2026-05-07 23:42 35.42910 -89.07240 3718 ft 267 kts 99°
2026-05-07 23:43 35.42591 -89.05054 3380 ft 257 kts 99°
2026-05-07 23:43 35.42356 -89.02969 3000 ft 238 kts 89°
2026-05-07 23:43 35.42761 -89.01121 2879 ft 216 kts 60°
2026-05-07 23:43 35.43734 -88.99753 2942 ft 214 kts 34°
2026-05-07 23:44 35.45058 -88.98962 3019 ft 211 kts 20°
2026-05-07 23:44 35.46428 -88.98282 3022 ft 212 kts 21°
2026-05-07 23:44 35.47800 -88.97591 3014 ft 213 kts 21°
2026-05-07 23:44 35.49157 -88.96912 3006 ft 203 kts 20°
2026-05-07 23:45 35.50349 -88.96316 2977 ft 172 kts 20°
2026-05-07 23:45 35.51352 -88.95809 2883 ft 146 kts 21°
2026-05-07 23:45 35.52295 -88.95333 2334 ft 142 kts 19°
2026-05-07 23:45 35.53192 -88.94884 1850 ft 139 kts 21°
2026-05-07 23:46 35.54090 -88.94429 1319 ft 137 kts 21°
2026-05-07 23:46 35.54946 -88.93993 1116 ft 138 kts 22°
2026-05-07 23:46 35.55521 -88.93669 1082 ft 143 kts 21°
2026-05-07 23:46 35.56795 -88.93067 859 ft 146 kts 18°
2026-05-07 23:47 35.57694 -88.92642 724 ft 133 kts 21°
2026-05-07 23:47 35.58553 -88.92215 581 ft 133 kts 21°
2026-05-07 23:47 35.59413 -88.91788 433 ft 128 kts 22°
2026-05-07 23:47 35.60019 -88.91482 420 ft 40 kts 21°
2026-05-07 23:48 35.60152 -88.91435 418 ft 16 kts 338°
2026-05-07 23:48 35.60197 -88.91524 419 ft 8 kts 293°
2026-05-07 23:48 35.60212 -88.91573 417 ft 5 kts 291°
2026-05-07 23:48 35.60219 -88.91595 415 ft 4 kts 291°
2026-05-07 23:49 35.60242 -88.91664 416 ft 11 kts 292°
2026-05-07 23:49 35.60252 -88.91695 420 ft 5 kts 292°
2026-05-07 23:49 35.60284 -88.91788 426 ft 17 kts 292°
2026-05-07 23:49 35.60264 -88.91851 424 ft 15 kts 193°
2026-05-07 23:50 35.60238 -88.91916 427 ft 3 kts 324°
2026-05-07 23:50 35.60254 -88.91922 419 ft 2 kts 353°
2026-05-07 23:50 35.60254 -88.91921 419 ft 0 kts 356°